Track STARLINK-1544 now! 10-day predictions STARLINK-1544 is classified as:
1 46031U 20055E 22219.77094459 -.00001446 00000-0 -78180-4 0 9992 2 46031 53.0540 247.0659 0001509 56.5954 303.5179 15.06391580110946